CAPE
1086 1235 1617 1768 1697 1640 1557 1501 1493 1614 1742 1863 1895 1887 1928 2013 2040 1981 2007 2087 2103 2151 2262 2056 1892 1730 1534 1355 1599 1599 1383 1164 1148 1263 1316 1402 1358 1236 1424 1308 1136 974 1317
1139 1247 1529 1779 1847 1823 1717 1599 1578 1716 1882 2006 2008 2027 2048 2041 2060 2016 2000 2179 2223 2434 2040 1731 1661 1597 1468 1527 1559 1485 1416 1253 1127 1092 1218 1353 1494 1371 1224 1249 1133 1090 1269
1210 1318 1416 1662 1905 2000 1932 1816 1781 1931 2050 2106 2126 2142 2149 2128 2137 2048 1973 2089 2337 2475 2141 1808 1621 1619 1613 1503 1394 1368 1318 1265 1207 1099 1091 888 1006 1438 1196 1323 1254 1222 1117
1356 1396 1479 1577 1762 1961 2014 1923 1903 2092 2147 2198 2194 2265 2252 2228 2208 2066 1916 2029 2362 2466 2311 1745 1604 1653 1560 1438 1276 1252 1239 1184 1106 955 737 818 1027 1289 1228 1143 1080 1125 1107
1124 1401 1570 1624 1718 1810 1868 2028 1985 2093 2108 2129 2190 2373 2358 2290 2106 1983 1916 2075 2351 2391 2175 1816 1854 1778 1459 1187 1130 1135 1044 897 711 686 785 771 859 1088 1201 1006 1074 1109 1019
1023 1548 1418 1491 1627 1795 1858 1888 2057 2103 2014 2024 2081 2288 2389 2261 2175 1967 1762 1923 2409 2297 2075 1948 2148 1611 1128 1020 1004 920 730 639 500 654 649 762 758 960 1070 969 1054 1046 905
1436 1448 1296 1406 1635 1809 1921 1947 1956 2096 2127 2026 2090 2108 2271 2161 2034 1840 1699 1602 2073 2014 1462 1792 1785 1205 1057 1006 895 709 550 488 513 550 570 602 643 1028 960 986 935 995 897
1732 1621 1173 1403 1615 1757 1831 1800 1864 2052 2184 2141 2130 2141 2228 2045 1730 1407 1466 1224 1076 838 807 1104 1096 1067 999 991 719 536 480 477 494 486 487 491 831 961 970 741 735 719 668
2053 1702 1412 1394 1521 1609 1644 1590 1705 2010 2167 2153 2121 2086 2059 1875 1527 1041 874 596 337 299 268 418 885 929 958 745 537 480 464 383 356 352 336 405 824 835 819 589 476 370 353
2405 2143 1581 1230 1276 1427 1499 1510 1554 1634 1493 1547 1736 1818 1943 1678 1143 863 749 574 483 181 110 164 519 718 782 540 454 409 377 344 285 250 196 370 872 677 608 529 334 167 77
2597 2343 2195 1369 1306 1241 1237 1350 1504 1602 1550 1636 1717 1689 1370 1412 929 903 649 372 239 7 137 204 219 447 301 375 342 284 213 224 196 167 159 519 907 797 648 413 269 121 29
2322 2724 2424 2066 1800 1671 1656 1308 1263 1443 1514 1333 1211 1105 1053 1039 838 726 530 261 178 133 166 143 162 173 154 270 270 196 111 102 134 140 184 402 809 539 571 393 231 106 40
2202 2778 2546 2298 2398 2232 2075 1695 1264 1239 1176 1110 1047 928 1178 884 663 619 501 261 92 109 55 88 108 125 166 209 220 176 58 36 95 143 159 245 518 355 277 192 85 34 28
2234 2534 2494 2304 2399 2269 2233 1786 1724 1635 1370 1218 1094 1011 1216 960 644 521 565 248 75 75 98 56 51 145 133 185 177 130 65 17 73 71 92 68 135 98 45 76 56 38 27
1275 2436 2561 2515 2350 2204 2098 2067 1932 2059 1790 1491 1290 1148 1100 984 716 511 381 258 119 68 88 90 58 146 178 145 119 86 41 19 51 38 31 20 13 32 14 20 29 23 26
0 2084 2649 2661 2226 2081 1965 1903 1461 1967 2017 1659 1409 1133 1022 965 829 630 418 244 115 121 162 107 85 138 194 171 113 113 34 11 21 12 11 1 0 1 10 18 14 27 20
0 503 2559 2459 2229 1962 1952 1865 1776 1766 1696 1619 1394 1231 1087 1049 915 655 452 231 133 157 153 129 89 95 70 80 67 72 42 3 3 0 0 0 0 0 4 36 41 28 13
0 254 2492 2339 2315 2307 2031 1747 1499 1538 1720 1534 1327 1243 1072 943 876 748 619 346 185 190 130 107 72 57 34 42 37 36 27 2 1 2 0 0 0 0 2 29 43 45 41
0 230 2363 2304 2361 2159 1896 1579 1298 1311 1424 1545 1299 1166 1118 981 761 571 478 432 244 113 76 62 36 29 41 55 50 35 28 5 7 2 0 0 0 0 0 12 20 25 44
0 678 2124 2240 2211 1934 1784 1396 1152 792 1148 1223 1097 974 1025 850 710 550 386 283 193 92 84 39 11 20 49 26 84 26 32 17 3 5 0 0 0 0 0 6 11 16 18
0 1651 2010 2185 2132 1836 1530 1459 1178 608 1627 1068 818 849 828 736 594 434 323 167 82 48 63 51 35 31 39 23 30 20 11 2 1 0 0 3 0 0 0 0 3 0 2
20 1897 2046 2165 2123 1791 1519 1388 1239 787 534 577 752 606 562 493 431 374 254 158 103 74 29 34 8 26 37 27 0 18 0 0 17 7 9 3 0 0 0 0 0 0 0
907 1953 2142 2170 1996 1846 1543 1350 1279 416 443 435 387 186 202 270 286 253 194 107 80 39 6 18 27 26 28 35 27 0 0 0 16 22 13 9 9 4 0 0 0 0 0
1949 2125 2150 2065 2023 1766 1521 1350 859 554 517 389 236 208 115 103 220 232 137 66 64 46 40 39 28 11 10 0 26 0 0 4 0 8 8 8 8 9 6 0 0 0 0
2027 2233 2077 2050 1925 1607 1437 1293 765 667 648 437 197 254 214 114 99 80 111 74 116 78 61 46 13 15 30 2 0 0 0 20 0 0 0 0 0 0 0 0 0 0 0
1697 2115 2102 1999 1824 1635 1390 1187 1010 695 545 445 209 214 168 123 123 110 114 79 61 52 46 53 24 18 8 14 22 0 0 0 0 2 2 0 0 0 0 0 0 0 0
CIN
-496 -488 -414 -383 -371 -347 -329 -294 -260 -206 -166 -124 -93 -78 -64 -46 -42 -40 -30 -15 -9 -1 -0 -0 -0 -0 -5 -10 -9 -15 -23 -27 -18 -10 -6 -1 -0 -0 -0 -0 -0 -0 -0
-502 -475 -416 -365 -328 -303 -289 -267 -228 -172 -123 -92 -73 -56 -56 -48 -40 -24 -12 -1 -1 -0 -0 -1 -0 -0 -10 -6 -12 -13 -16 -20 -21 -16 -7 -1 -0 -0 -0 -0 -0 -0 -0
-474 -426 -409 -356 -297 -258 -243 -219 -180 -119 -80 -53 -36 -34 -33 -35 -29 -19 -8 -2 -1 -0 -0 -0 -0 -0 -4 -5 -12 -16 -17 -15 -15 -18 -20 -34 -9 -0 -0 -0 -0 -0 -0
-435 -404 -384 -363 -306 -246 -210 -182 -145 -81 -48 -24 -19 -16 -16 -15 -7 -10 -9 -5 -1 -0 -0 -0 -0 -0 -4 -13 -21 -23 -21 -20 -16 -28 -39 -18 -0 -0 -0 -0 -0 -0 -0
-430 -398 -363 -339 -305 -247 -206 -152 -139 -79 -41 -17 -13 -5 -1 -6 -12 -10 -10 -6 -1 -0 -0 -0 -0 -0 -6 -21 -33 -36 -29 -30 -44 -25 -20 -15 -0 -0 -0 -0 -0 -0 -0
-360 -356 -404 -365 -303 -233 -190 -161 -120 -71 -40 -21 -11 -4 -0 -1 -3 -11 -22 -8 -0 -0 -1 -0 -0 -3 -35 -39 -41 -31 -35 -41 -11 -9 -19 -8 -0 -0 -0 -0 -0 -0 -0
-346 -270 -430 -379 -296 -216 -166 -137 -122 -72 -33 -13 -2 -3 -1 -2 -6 -14 -27 -21 -4 -1 -13 -1 -0 -20 -30 -35 -32 -33 -44 -39 -6 -17 -25 -12 -1 -0 -0 -0 -0 -0 -0
-242 -159 -425 -349 -289 -215 -174 -153 -127 -88 -38 -9 -1 -2 -1 -4 -12 -18 -29 -19 -19 -9 -15 -10 -27 -21 -29 -32 -33 -65 -3 -5 -25 -30 -34 -17 -3 -0 -0 -0 -0 -0 -0
-269 -188 -204 -336 -291 -238 -198 -180 -144 -89 -39 -10 -8 -15 -13 -7 -6 -16 -29 -58 -28 -52 -0 -6 -30 -25 -24 -29 -47 -15 -1 -14 -35 -28 -46 -15 -2 -0 -0 -0 -0 -0 -0
-190 -159 -141 -337 -325 -263 -221 -185 -148 -126 -104 -62 -28 -9 -5 -3 -12 -19 -6 -27 -78 -159 -148 -0 -17 -35 -27 -24 -50 -14 -8 -19 -34 -42 -54 -31 -1 -0 -0 -0 -0 -5 -12
-144 -160 -133 -274 -299 -285 -270 -204 -149 -125 -90 -52 -11 -3 -10 -12 -40 -23 -23 -60 -144 -208 -132 -6 -4 -37 -65 -40 -32 -28 -30 -29 -40 -38 -54 -18 -0 -0 -1 -0 -10 -14 -61
-113 -123 -140 -148 -190 -192 -199 -208 -192 -152 -95 -99 -84 -50 -36 -27 -36 -41 -51 -127 -149 -128 -71 -31 -0 -27 -59 -39 -30 -24 -24 -13 -26 -44 -51 -5 -0 -0 -0 -0 -7 -16 -76
-54 -92 -107 -100 -93 -99 -128 -148 -178 -193 -162 -135 -109 -86 -24 -28 -59 -51 -46 -88 -123 -105 -87 -32 -2 -23 -46 -37 -31 -28 -20 -24 -12 -28 -39 -8 -0 -0 -0 -10 -22 -8 -10
-52 -105 -100 -84 -92 -84 -82 -122 -133 -111 -119 -116 -103 -87 -29 -37 -59 -57 -34 -31 -21 -81 -56 -22 -37 -17 -40 -40 -35 -22 -30 -15 -55 -61 -66 -56 -26 -29 -50 -36 -84 -5 -3
-85 -84 -97 -73 -122 -98 -88 -97 -83 -58 -69 -106 -92 -72 -57 -29 -57 -59 -47 -29 -21 -79 -58 -41 -63 -26 -41 -44 -61 -44 -17 -24 -77 -113 -173 -168 -151 -102 -0 -0 -1 -1 -1
-0 -61 -76 -82 -115 -130 -116 -108 -121 -53 -41 -77 -82 -90 -73 -42 -35 -21 -24 -27 -15 -67 -49 -92 -104 -72 -29 -32 -38 -37 -17 -27 -9 -31 -69 -23 -0 -2 -1 -0 -0 -0 -0
-0 -82 -104 -71 -60 -167 -159 -128 -87 -54 -70 -72 -84 -84 -60 -39 -26 -8 -10 -10 -2 -38 -34 -32 -41 -75 -29 -19 -29 -28 -10 -22 -6 -0 -0 -0 -0 -0 -8 -4 -4 -2 -0
-0 -124 -90 -67 -107 -125 -136 -139 -147 -72 -60 -78 -78 -69 -55 -44 -25 -18 -1 -13 -27 -23 -65 -29 -43 -34 -35 -19 -13 -17 -8 -5 -2 -91 -0 -0 -0 -0 -4 -27 -9 -3 -1
-0 -146 -78 -78 -115 -113 -110 -141 -190 -121 -87 -57 -70 -69 -37 -26 -9 -9 -5 -2 -8 -55 -42 -47 -47 -40 -19 -7 -13 -15 -0 -5 -43 -106 -0 -0 -0 -0 -0 -17 -18 -20 -6
-0 -141 -90 -87 -95 -85 -51 -212 -204 -211 -159 -107 -124 -107 -58 -40 -7 -2 -2 -6 -12 -28 -20 -29 -39 -33 -20 -0 -0 -3 -0 -5 -45 -0 -0 -0 -0 -0 -0 -16 -17 -18 -15
-0 -155 -117 -72 -90 -82 -203 -195 -185 -276 -96 -144 -176 -120 -90 -36 -10 -1 -2 -19 -22 -28 -24 -19 -29 -7 -4 -0 -0 -0 -1 -0 -0 -0 -0 -42 -0 -0 -0 -0 -13 -0 -10
-148 -153 -139 -83 -97 -100 -80 -196 -188 -213 -252 -231 -167 -145 -133 -51 -4 -7 -13 -24 -10 -6 -41 -37 -6 -5 -0 -2 -0 -0 -0 -0 -46 -18 -18 -21 -1 -0 -0 -0 -0 -0 -0
-172 -160 -106 -86 -114 -83 -85 -166 -156 -307 -273 -273 -252 -262 -200 -89 -29 -12 -10 -16 -13 -9 -9 -33 -16 -11 -3 -0 -0 -0 -0 -0 -16 -20 -7 -12 -3 -6 -0 -0 -0 -0 -0
-151 -141 -80 -101 -90 -74 -80 -162 -242 -313 -312 -330 -320 -246 -178 -104 -43 -24 -23 -12 -21 -28 -8 -0 -0 -1 -1 -0 -7 -0 -0 -56 -0 -8 -7 -5 -8 -9 -9 -0 -0 -0 -0
-83 -89 -99 -94 -93 -84 -97 -165 -246 -242 -234 -270 -274 -183 -100 -73 -52 -43 -12 -18 -12 -18 -19 -5 -0 -7 -4 -0 -0 -0 -0 -29 -0 -0 -0 -0 -0 -0 -0 -0 -0 -0 -0
-63 -85 -96 -105 -100 -90 -150 -179 -180 -202 -220 -225 -242 -155 -104 -73 -30 -26 -1 -5 -15 -17 -2 -0 -0 -1 -0 -8 -12 -0 -0 -0 -0 -4 -36 -0 -0 -0 -0 -0 -0 -0 -0
Wind_Speed
28 29 31 35 32 32 32 30 31 32 32 31 31 33 34 35 37 37 37 38 41 41 42 42 39 38 41 41 36 38 40 42 38 38 36 33 30 29 28 29 24 19 24
36 30 30 32 31 33 30 31 31 32 32 33 32 33 36 36 37 36 36 38 39 41 42 42 41 37 38 42 40 39 41 43 42 41 40 37 33 31 31 28 24 20 23
38 32 29 29 30 30 31 31 33 33 35 35 32 33 34 36 37 38 37 37 39 41 41 42 40 39 38 40 41 41 40 40 39 41 40 30 27 33 32 29 24 23 24
42 33 27 30 28 29 31 32 31 32 35 36 35 32 34 36 38 39 40 39 40 42 42 36 39 40 37 37 39 40 38 35 35 39 31 28 27 33 34 30 26 26 26
43 34 31 30 27 29 29 30 32 34 35 34 35 35 34 36 38 41 38 39 41 41 39 37 37 39 35 35 37 34 34 32 34 33 29 27 25 30 32 29 27 27 25
41 40 36 31 28 29 28 31 33 32 33 36 36 38 36 38 38 38 37 39 40 43 39 38 40 36 34 35 33 31 33 32 36 31 29 30 26 31 30 29 27 27 26
46 41 37 37 29 29 31 32 32 31 30 33 35 36 38 42 42 38 34 37 38 38 42 38 40 38 31 33 30 32 30 34 34 32 29 28 26 30 30 30 29 27 28
49 45 39 38 32 30 32 32 31 32 31 34 35 35 37 40 40 36 31 30 28 29 39 33 38 36 30 32 28 29 31 35 33 31 29 26 27 28 31 32 30 26 28
50 47 42 37 33 29 31 31 34 34 33 33 32 34 38 43 40 35 41 45 45 43 36 30 35 36 29 28 25 27 32 35 32 29 29 26 29 30 32 32 29 28 27
46 48 44 38 32 30 30 32 36 37 33 34 35 38 41 42 43 44 44 45 38 38 37 17 21 32 28 27 24 25 31 30 30 30 27 27 30 30 30 29 28 29 nan
44 45 42 39 33 32 33 32 38 38 36 36 38 40 39 35 38 35 35 34 32 nan 34 24 18 24 24 25 21 24 27 27 27 30 26 28 31 30 29 27 28 28 nan
38 42 41 38 34 32 34 34 38 37 36 35 37 39 34 35 35 33 32 33 33 34 34 36 23 24 20 23 22 24 26 27 28 29 28 29 29 30 31 29 27 28 nan
39 38 39 40 37 33 34 35 38 38 36 35 38 37 35 35 31 30 27 24 nan 27 nan nan 27 28 19 21 22 24 nan nan nan 30 28 32 30 29 28 30 nan nan nan
40 36 37 38 37 35 36 36 39 40 34 37 37 38 36 32 29 27 25 21 nan nan nan nan nan 24 22 19 21 22 nan nan nan nan nan nan 32 nan nan nan nan nan nan
41 35 35 38 37 38 36 37 39 37 34 34 38 40 36 30 27 27 23 21 19 nan nan nan nan 18 26 26 24 nan nan nan nan nan nan nan nan nan nan nan nan nan nan
nan 36 35 33 37 39 38 38 40 34 35 35 35 40 36 28 25 26 23 22 20 19 20 19 nan 24 24 23 27 28 nan nan nan nan nan nan nan nan nan nan nan nan nan
nan 37 37 36 34 39 42 41 40 33 37 34 37 37 35 29 25 27 25 24 22 22 22 19 nan nan nan nan nan nan nan nan nan nan nan nan nan nan nan nan nan nan nan
nan 36 41 40 34 39 41 40 33 35 36 31 36 34 33 28 26 24 25 25 24 24 25 20 nan nan nan nan nan nan nan nan nan nan nan nan nan nan nan nan nan nan nan
nan 37 39 40 34 38 41 35 32 32 32 29 32 31 32 27 24 22 25 24 24 23 nan nan nan nan nan nan nan nan nan nan nan nan nan nan nan nan nan nan nan nan nan
nan 38 39 35 36 37 38 35 33 28 26 27 30 28 29 23 22 22 24 24 24 nan nan nan nan nan nan nan nan nan nan nan nan nan nan nan nan nan nan nan nan nan nan
nan 41 37 33 30 33 35 31 30 25 24 25 27 25 23 21 20 23 22 25 nan nan nan nan nan nan nan nan nan nan nan nan nan nan nan nan nan nan nan nan nan nan nan
nan 42 31 32 27 30 30 28 29 27 23 26 25 21 21 23 24 25 25 25 27 nan nan nan nan nan nan nan nan nan nan nan nan nan nan nan nan nan nan nan nan nan nan
34 33 34 26 26 28 27 32 28 24 25 24 22 20 20 25 24 22 25 27 nan nan nan nan nan nan nan nan nan nan nan nan nan nan nan nan nan nan nan nan nan nan nan
31 33 37 25 28 27 25 28 24 21 23 20 20 20 22 22 19 23 23 nan nan nan nan nan nan nan nan nan nan nan nan nan nan nan nan nan nan nan nan nan nan nan nan
35 39 31 25 28 27 28 27 24 24 20 20 19 21 22 20 nan nan 25 nan 27 nan nan nan nan nan nan nan nan nan nan nan nan nan nan nan nan nan nan nan nan nan nan
36 37 26 27 26 25 29 28 24 22 18 19 18 21 22 20 17 20 24 nan nan nan nan nan nan nan nan nan nan nan nan nan nan nan nan nan nan nan nan nan nan nan nan
Wind_Direction
283 297 300 299 302 303 306 309 311 312 310 307 302 295 292 291 293 293 291 288 288 288 290 286 284 274 272 269 261 258 258 260 261 263 264 268 270 269 262 262 268 268 268
289 292 296 296 297 302 303 306 310 312 311 308 304 303 300 298 296 295 294 293 292 294 294 289 284 282 272 266 260 257 258 258 261 265 266 267 266 265 265 263 267 267 269
284 284 285 287 293 298 302 305 309 310 306 305 305 304 303 303 300 298 294 292 294 297 297 291 287 281 275 267 262 259 257 259 261 261 260 254 255 265 267 263 266 269 273
278 278 280 284 287 292 298 303 304 306 303 303 306 309 308 306 301 298 298 297 299 300 298 298 290 280 273 267 260 258 258 260 259 256 248 245 250 265 265 267 270 272 274
274 278 279 280 283 287 292 300 304 305 303 306 309 309 309 310 308 303 303 304 300 300 301 301 288 278 269 264 261 260 261 257 250 246 243 236 240 259 263 265 266 270 274
281 273 279 276 277 282 289 294 299 304 302 301 303 309 312 313 307 305 308 305 302 302 303 294 283 270 265 265 264 257 251 250 246 240 242 241 240 259 261 262 266 271 278
260 269 278 276 275 278 286 293 296 302 301 302 310 305 307 310 309 306 307 307 303 303 300 275 269 269 263 263 262 256 248 244 245 240 238 233 239 258 263 265 264 268 274
269 266 272 277 278 279 284 289 293 297 303 304 306 308 307 310 308 303 302 297 296 290 300 258 261 260 264 267 261 257 246 248 243 245 246 239 253 262 264 265 263 264 271
269 265 268 268 273 278 284 290 293 296 302 306 309 309 309 305 294 288 279 276 275 276 273 204 264 271 267 259 254 251 247 247 239 238 245 241 256 260 263 265 265 267 275
270 264 265 268 273 274 277 287 291 295 299 301 298 298 302 301 295 289 282 285 290 297 286 205 244 260 269 256 251 252 248 253 245 240 238 242 261 259 261 268 272 272 nan
270 266 265 267 272 277 279 286 291 294 300 300 298 296 299 290 285 288 280 286 291 nan 284 285 227 246 261 265 268 263 254 232 234 234 236 261 265 268 270 273 272 274 nan
271 263 266 268 273 277 282 281 285 288 290 296 296 296 294 284 279 278 276 291 291 286 286 277 233 237 237 251 242 248 237 232 232 237 233 255 262 270 273 275 274 273 nan
277 259 267 269 272 278 274 277 280 283 288 296 297 297 290 281 276 272 267 268 nan 281 nan nan 225 231 227 245 238 234 nan nan nan 235 250 258 263 265 271 275 nan nan nan
278 271 272 275 273 273 268 275 280 282 289 292 294 295 287 283 282 271 262 262 nan nan nan nan nan 233 225 248 250 230 nan nan nan nan nan nan 265 nan nan nan nan nan nan
273 273 274 276 274 274 270 273 275 278 288 292 290 289 289 288 282 269 265 261 269 nan nan nan nan 233 226 246 247 nan nan nan nan nan nan nan nan nan nan nan nan nan nan
nan 270 271 276 278 275 268 273 273 275 282 286 286 286 291 289 281 271 272 270 266 275 276 271 nan 256 248 231 238 245 nan nan nan nan nan nan nan nan nan nan nan nan nan
nan 264 273 265 269 275 274 270 270 273 277 284 284 290 292 291 287 271 270 277 279 272 271 271 nan nan nan nan nan nan nan nan nan nan nan nan nan nan nan nan nan nan nan
nan 266 275 267 267 273 270 267 266 272 273 280 285 289 292 289 290 275 270 272 273 268 269 270 nan nan nan nan nan nan nan nan nan nan nan nan nan nan nan nan nan nan nan
nan 261 268 270 273 272 267 266 267 272 276 281 286 288 292 290 284 274 269 269 273 271 nan nan nan nan nan nan nan nan nan nan nan nan nan nan nan nan nan nan nan nan nan
nan 260 268 266 271 269 264 258 257 267 277 287 285 287 291 290 285 271 265 270 270 nan nan nan nan nan nan nan nan nan nan nan nan nan nan nan nan nan nan nan nan nan nan
nan 264 268 269 277 266 262 262 261 274 277 282 281 283 280 278 277 272 271 276 nan nan nan nan nan nan nan nan nan nan nan nan nan nan nan nan nan nan nan nan nan nan nan
nan 264 269 280 279 264 257 253 248 260 272 278 275 274 275 279 276 279 283 283 275 nan nan nan nan nan nan nan nan nan nan nan nan nan nan nan nan nan nan nan nan nan nan
254 271 274 288 276 259 252 245 250 259 267 273 271 264 271 275 282 291 288 283 nan nan nan nan nan nan nan nan nan nan nan nan nan nan nan nan nan nan nan nan nan nan nan
271 274 278 277 261 252 253 250 271 274 279 273 270 276 276 281 285 294 302 nan nan nan nan nan nan nan nan nan nan nan nan nan nan nan nan nan nan nan nan nan nan nan nan
263 269 276 256 252 246 248 250 253 259 264 261 265 276 280 285 nan nan 298 nan 284 nan nan nan nan nan nan nan nan nan nan nan nan nan nan nan nan nan nan nan nan nan nan
246 266 261 249 251 251 248 250 262 267 280 276 272 276 271 277 284 296 299 nan nan nan nan nan nan nan nan nan nan nan nan nan nan nan nan nan nan nan nan nan nan nan nan